Find Starlink 30404

NORAD ID: 57853 Int'l Des: 2023-141 Owner: SPXS Country: US Constellation: starlink operational
LEOCIRCULAR

現在のビュー

3D地球を読み込み中...

About Starlink 30404

Starlink 30404 (NORAD 57853) is a starlink constellation satellite (v2 mini) launched Sep 12, 2023 by SPXS of US. It operates in LEO, CIRCULAR orbit with a mass of 730.00 kg.

次回通過

Passes for default location (London). Set your location on the main map for personalized predictions.

高度履歴

Loading altitude history...

軌道要素

1 57853U 23141P 26263.97326492 .00000032 00000-0 12068-4 0 9996
2 57853 53.1599 95.1455 0001058 88.0356 272.0768 15.34390762170252
Epoch: Sep 20, 2026 • Age: 23 hours

現在のステータス

高度 463.1 km
遠地点 / 近地点 N/A
速度 7.64 km/s
衛星直下点 4.30°N, 63.29°W
打ち上げ日 Sep 12, 2023
運用期間 3 years
タイプ internet

技術仕様

分類 Payload
質量 730.00 kg
乾燥質量 700.00 kg
長さ 0.30 m
スパン 29.00 m
形状 ? Box + pan
製造者 SPXS
バスタイプ Starlink V2M
フェーズステータス In Orbit
所有者/国 SPXS/US

Most Searched